Theta_e
278 278 278 278 278 278 278 278 279 279 278 279 278 278 277 277 274 272 272 274 274 276 278 278 279 282 283 283 284 283 283 286 286 284 283 283 282 287 289 290 291 291 292 293 293 293 293 294 294 295 295 296 296 297 297 297 298 299 300 300 301 303 304 304 304 304 305 306 307 309 310 310 311 312
277 278 277 277 278 277 277 278 278 278 278 278 278 278 278 277 275 275 273 274 276 276 278 279 279 280 281 282 283 283 282 286 285 284 283 282 282 287 288 288 289 290 291 291 291 291 292 293 293 294 294 295 296 297 297 297 298 298 299 301 302 302 302 304 304 304 304 305 306 306 308 309 310 311
278 277 276 276 276 276 277 277 277 277 277 278 277 277 278 278 276 276 274 273 275 277 276 277 279 279 279 281 281 282 282 284 285 282 282 282 285 285 284 285 287 288 288 289 290 291 292 292 293 293 294 295 296 297 297 297 297 298 299 300 300 301 303 303 303 303 303 304 304 305 306 307 308 310
278 276 276 275 276 276 276 276 276 276 277 277 278 277 277 276 276 276 276 274 274 278 277 278 278 279 279 279 279 279 281 283 285 281 281 281 284 281 281 284 285 286 287 288 289 290 292 292 293 293 293 294 295 295 296 296 296 297 298 299 300 299 300 300 301 302 302 303 303 304 305 306 307 308
276 276 275 275 275 276 276 276 276 276 276 276 277 277 277 277 276 275 275 273 274 276 277 277 277 278 278 278 278 278 278 279 279 282 280 280 280 280 280 280 283 284 286 287 289 290 291 292 291 291 291 291 293 293 294 294 294 296 297 297 299 299 298 299 300 301 301 302 303 303 303 304 305 306
276 275 274 275 274 275 276 275 274 275 275 275 275 275 276 274 275 275 275 274 273 272 275 275 276 276 277 276 277 277 277 277 278 278 278 279 279 279 279 279 279 284 285 287 287 288 288 288 289 289 288 290 291 292 293 293 294 295 295 295 296 297 298 299 298 298 299 301 301 302 302 303 304 304
274 274 274 273 274 276 274 274 274 274 274 274 274 274 274 274 274 274 274 273 272 272 273 275 274 275 276 276 276 276 277 277 277 276 276 277 278 278 278 278 279 283 284 285 286 286 286 287 287 287 287 288 288 289 290 290 291 293 294 294 294 294 295 296 296 297 298 300 301 301 302 302 304 304
274 273 273 273 273 273 273 273 273 273 273 273 273 273 273 273 273 274 274 274 273 273 272 274 274 275 274 275 275 276 276 275 275 275 276 276 276 276 277 277 277 280 283 284 284 284 285 285 286 286 287 288 289 289 289 290 290 291 292 293 293 293 294 295 294 295 296 297 299 300 300 301 301 302
274 273 273 273 273 273 272 272 272 273 272 273 273 273 273 273 274 274 274 273 273 272 272 272 274 274 274 274 274 274 273 274 274 275 274 275 275 275 276 277 278 280 282 282 282 282 283 284 284 285 287 287 287 288 288 288 289 289 289 289 289 290 291 293 293 293 295 295 295 296 297 299 299 300
274 274 273 273 273 273 272 273 272 272 272 272 272 272 272 273 273 273 273 273 272 272 272 272 271 273 272 272 272 273 273 273 272 273 274 274 274 274 274 275 276 277 277 277 278 280 280 282 283 284 285 286 285 286 286 286 287 286 286 287 287 288 289 291 293 293 294 294 294 295 296 297 298 299
273 273 273 273 273 273 273 272 272 272 272 271 271 272 272 272 272 272 272 272 271 271 271 271 271 271 272 271 270 272 273 273 272 271 271 271 273 273 273 273 275 276 276 278 280 280 280 281 281 282 283 284 285 285 285 286 285 284 285 286 287 288 289 289 290 292 293 293 294 295 295 296 297 298
273 273 273 273 273 273 273 273 273 273 272 272 272 272 272 272 272 271 271 271 271 270 270 270 269 270 270 270 271 272 272 271 271 272 271 270 270 271 273 273 273 275 275 275 275 278 279 279 280 281 282 282 283 284 284 283 283 283 284 285 286 287 288 289 290 290 291 291 292 293 293 294 295 297
273 273 273 274 273 274 277 279 278 278 278 273 271 272 272 270 271 270 269 270 271 271 270 270 270 270 269 269 269 269 269 269 269 271 271 270 271 272 272 273 274 275 274 275 275 275 276 276 276 276 276 277 280 280 282 281 282 282 284 286 287 288 289 289 289 289 290 290 291 291 292 292 293 294
273 274 274 275 278 278 279 279 279 279 279 279 277 275 273 271 270 270 271 271 271 270 269 269 269 268 268 269 270 269 270 271 271 271 271 270 271 271 271 272 273 275 274 274 273 275 276 276 276 276 276 277 279 278 278 278 280 283 285 286 286 287 287 288 289 289 290 290 290 289 290 291 292 292
273 273 274 273 275 277 278 276 278 278 278 278 278 278 278 278 275 273 272 271 271 270 269 270 269 269 269 270 271 270 271 271 271 270 271 271 271 270 269 268 272 275 275 274 273 274 276 276 275 275 276 277 277 278 277 281 283 284 285 285 285 286 286 287 287 288 289 289 290 290 290 290 291 291
272 272 273 273 274 273 273 272 272 274 276 277 277 277 277 277 278 278 275 272 271 271 270 270 270 270 270 270 271 271 272 271 272 272 272 271 271 271 270 271 270 275 276 274 273 273 276 277 275 275 276 277 277 278 280 283 283 284 284 285 285 285 286 286 287 287 288 288 288 288 289 290 290 290
272 272 272 272 273 272 275 274 272 271 271 275 276 276 276 276 276 276 277 277 275 274 272 271 271 271 271 271 271 273 273 274 272 272 272 272 272 272 272 272 272 274 277 275 273 273 275 276 275 274 276 276 277 277 280 282 283 284 284 284 285 285 285 286 286 287 287 287 288 288 288 290 290 290
272 272 272 271 270 270 270 271 271 271 270 270 270 270 269 270 273 275 276 276 276 276 273 272 271 273 273 272 273 274 275 273 272 272 271 273 272 272 272 274 274 276 277 275 274 272 274 276 275 274 275 276 276 276 279 282 283 283 284 284 284 285 285 285 285 286 286 287 288 288 288 288 289 290
273 272 271 270 270 270 270 271 272 271 271 269 270 271 271 272 273 273 273 273 273 274 274 274 274 274 275 274 275 275 275 275 275 274 274 274 274 274 275 275 276 276 277 276 275 270 274 276 274 274 274 275 275 275 279 281 282 283 283 283 284 284 284 285 285 286 286 286 286 287 288 288 289 289
272 270 270 269 269 269 269 272 275 275 273 272 272 272 273 273 273 274 276 278 278 276 276 276 276 276 276 277 276 276 277 277 277 277 277 276 275 274 273 272 274 274 276 277 275 272 273 275 273 273 275 275 274 275 275 279 282 282 282 283 283 284 284 284 284 284 285 285 286 286 286 287 288 288
270 270 270 270 269 269 269 273 275 276 276 273 273 273 272 273 273 274 275 278 280 280 281 281 281 282 282 282 282 282 282 279 278 275 273 271 272 271 270 271 272 273 275 276 276 274 272 274 273 272 274 274 274 274 275 276 279 281 282 282 283 283 283 283 283 283 284 284 285 285 285 286 287 287
270 270 273 273 272 271 271 274 276 277 276 274 274 274 273 273 273 274 275 276 277 279 280 280 280 280 280 280 280 280 279 279 278 274 271 273 273 272 272 270 271 272 273 275 277 273 272 274 274 272 273 274 274 275 275 276 277 280 280 281 282 282 282 282 283 283 283 284 284 283 285 286 286 284
270 271 272 273 274 273 273 276 277 278 277 275 275 274 274 273 272 274 275 275 274 274 274 274 274 274 275 274 273 273 277 277 277 274 273 273 271 270 270 270 270 269 271 275 277 272 272 273 274 273 271 270 273 275 275 275 276 276 275 276 276 279 280 281 282 282 282 282 283 283 284 284 283 282
270 270 269 272 275 276 277 277 278 278 278 276 275 275 274 273 272 274 274 274 274 273 272 271 271 271 271 271 271 271 271 272 272 272 272 272 271 270 270 270 270 268 270 274 276 272 273 274 272 274 273 269 268 272 275 274 274 274 274 274 274 277 278 278 278 279 280 281 282 282 282 282 282 280
269 269 270 271 274 276 277 277 277 278 278 278 277 275 273 273 274 276 273 273 273 270 269 268 268 268 268 268 268 269 269 269 270 271 272 272 272 271 270 269 270 270 272 275 277 273 271 272 270 271 271 271 270 270 271 272 273 273 273 273 273 274 274 274 275 275 277 279 280 281 281 282 282 281
269 270 271 272 274 276 276 277 277 278 279 279 275 273 276 277 276 274 272 270 268 266 266 265 265 265 265 265 266 267 268 268 269 270 270 271 271 272 271 270 269 268 269 273 276 272 270 269 270 270 270 269 269 270 269 270 272 273 274 273 273 273 274 273 273 274 274 274 275 277 278 282 283 283
270 272 273 273 275 276 276 277 278 278 278 275 273 275 276 275 275 273 267 266 264 263 263 264 263 264 264 264 265 266 266 267 268 268 269 269 269 270 271 271 271 270 271 272 273 273 271 270 271 270 269 270 268 269 269 268 270 273 273 273 274 274 274 274 273 273 274 274 275 279 280 280 281 282
272 272 272 273 275 276 276 278 277 276 275 273 274 274 274 274 272 266 264 261 262 263 263 262 262 262 263 264 264 265 266 267 267 267 268 268 269 269 269 270 271 272 272 272 273 273 272 271 271 272 271 269 268 267 267 271 271 271 271 273 274 274 274 274 273 273 274 274 274 274 274 274 276 276
273 274 275 276 276 277 277 276 275 273 272 272 273 273 273 271 264 262 260 260 260 260 261 262 262 263 263 264 265 266 267 267 267 267 267 268 268 268 269 269 270 271 272 272 272 273 273 272 271 272 272 271 269 269 270 269 270 271 272 272 271 273 274 274 274 273 273 274 273 274 274 274 274 276
276 276 276 277 277 276 274 272 269 267 266 271 272 271 270 262 261 260 260 259 260 260 262 263 263 263 264 264 265 266 266 265 265 265 265 266 266 267 267 267 268 270 271 272 273 273 273 273 273 273 272 272 271 270 271 270 270 271 272 272 272 274 274 274 274 273 273 273 273 274 274 275 275 276
273 274 274 274 275 274 274 273 271 270 269 266 265 263 262 260 260 261 259 260 261 262 262 262 262 263 264 265 265 264 264 264 265 266 266 266 266 267 267 267 267 267 269 270 271 272 272 273 273 273 271 271 272 272 272 272 271 271 272 273 273 270 272 274 274 273 273 273 274 274 274 275 275 276
271 272 273 272 267 264 262 261 260 260 260 262 262 261 260 260 261 264 266 266 262 262 262 262 263 263 263 262 262 263 263 264 265 266 266 266 266 267 266 265 265 266 267 268 270 271 272 273 272 273 272 272 271 272 273 272 271 272 272 273 273 273 274 273 273 273 274 274 273 273 274 275 275 275
270 269 268 265 264 262 261 260 259 258 257 259 259 258 258 258 258 257 257 258 259 260 260 261 261 262 262 262 263 263 263 264 264 266 265 266 265 266 266 264 265 265 265 266 267 268 269 270 272 272 272 272 273 273 271 270 272 273 272 272 273 272 273 274 273 273 274 273 273 273 274 275 276 276
268 267 265 264 262 260 258 257 258 258 257 258 258 257 263 261 258 259 259 258 259 260 261 261 261 261 262 262 262 263 263 264 264 265 267 265 265 264 264 264 264 265 265 265 266 267 268 269 270 270 271 272 273 273 273 271 271 272 273 273 273 272 273 274 274 274 274 273 273 272 273 274 276 277
267 265 264 262 259 259 258 258 259 258 258 258 258 258 257 257 259 260 258 259 260 260 261 261 261 262 262 262 263 263 263 264 264 264 265 265 264 264 264 263 263 264 264 265 265 266 267 267 267 267 268 269 269 271 276 275 272 272 273 273 273 273 273 274 274 274 274 274 275 273 273 274 275 276
266 265 263 260 259 258 258 260 259 258 258 258 257 257 257 258 257 259 258 260 259 259 260 260 261 262 262 263 263 263 263 264 264 264 264 264 264 264 264 263 264 264 264 264 265 266 266 266 267 266 265 265 265 265 267 275 276 274 272 272 273 273 274 274 275 275 275 274 275 274 273 273 274 276
266 263 262 259 258 258 259 259 257 257 256 257 257 256 257 258 259 259 260 262 260 260 261 262 262 262 262 263 263 263 263 263 263 263 263 263 264 263 263 263 264 264 264 264 265 265 266 266 267 266 265 264 264 263 266 271 274 277 274 272 272 274 274 275 275 274 275 276 275 275 274 275 275 276
264 263 261 259 258 258 258 258 257 257 257 257 256 257 258 258 259 259 259 259 260 259 260 260 261 262 262 262 262 262 262 263 263 262 263 263 263 263 263 263 263 263 264 265 265 265 266 266 266 266 265 264 263 264 264 268 269 271 275 273 270 271 273 272 272 273 274 276 275 276 277 276 276 277
263 261 260 259 259 257 258 258 257 257 255 256 256 257 257 257 257 258 259 258 259 259 259 259 260 261 262 261 262 262 262 262 262 262 263 263 263 263 263 264 264 265 264 264 264 265 265 265 266 266 266 265 264 265 266 266 267 270 273 276 274 272 273 273 273 274 275 275 276 278 278 279 280 282
262 260 259 258 258 257 257 257 256 256 256 256 257 256 255 257 257 257 257 258 258 259 259 260 261 262 261 261 261 261 261 261 262 262 263 263 264 264 264 264 264 264 263 263 263 264 264 265 266 266 267 267 268 269 269 270 270 271 272 274 278 276 275 276 275 275 275 277 277 276 276 278 276 277
260 259 258 258 257 257 257 256 256 255 256 256 255 258 258 256 257 257 256 257 259 258 259 259 259 259 260 260 260 261 261 261 261 262 263 264 264 264 264 264 263 264 263 263 263 263 264 265 268 271 269 269 270 271 269 268 268 270 271 273 277 279 279 279 277 276 276 278 278 277 276 276 276 277
259 259 258 257 257 257 256 256 255 254 255 255 255 256 256 256 257 261 261 260 258 258 258 258 259 259 260 260 260 261 261 261 261 261 263 263 263 263 263 263 263 263 263 262 263 263 265 267 268 268 268 269 269 268 266 267 267 269 271 273 274 277 279 279 279 279 279 278 277 276 276 277 277 275
258 258 258 258 257 256 255 256 254 254 255 254 255 255 255 256 256 256 256 256 256 256 257 257 258 258 259 259 260 261 261 260 261 261 262 264 263 262 262 262 263 263 263 263 264 265 266 267 267 267 268 268 268 268 266 266 268 269 270 272 272 273 275 278 278 278 279 279 280 279 278 277 275 273
258 258 258 257 257 257 255 255 255 254 254 255 255 254 255 255 256 256 255 255 256 256 256 257 257 258 258 259 260 260 260 261 261 262 263 263 263 263 262 262 263 263 264 264 264 264 265 266 266 267 266 266 267 267 266 266 267 269 269 270 272 273 272 273 274 276 276 277 278 279 281 281 281 280
258 258 258 257 257 256 255 254 254 254 254 254 255 255 256 256 256 256 255 255 255 256 256 256 256 257 258 258 258 258 259 262 262 262 263 263 262 262 262 263 263 263 263 263 263 263 264 265 266 267 267 267 267 267 267 268 267 268 268 269 270 271 271 271 270 270 272 272 275 278 279 280 280 280
Wind_Speed
2 2 1 2 4 4 2 3 3 3 4 3 3 4 3 3 4 6 6 8 5 4 3 4 3 9 12 11 7 7 6 8 11 7 5 5 5 10 20 22 23 23 23 23 23 23 24 25 25 25 25 25 25 26 26 26 26 26 26 26 27 27 26 25 24 23 23 22 22 22 23 22 22 22
2 2 3 3 3 3 3 3 4 4 3 3 3 3 4 3 4 3 6 9 3 7 2 2 6 5 8 10 12 10 10 9 12 8 7 7 6 17 21 21 21 21 22 23 24 24 25 25 25 25 25 26 26 26 26 26 27 27 27 28 27 27 26 25 24 24 23 23 22 22 22 23 23 22
1 2 2 3 2 2 2 3 4 4 4 5 3 4 3 4 3 5 4 8 3 1 9 5 5 9 6 7 9 9 10 11 12 9 9 10 14 19 13 17 19 20 23 24 25 25 25 25 25 25 25 26 26 26 27 27 27 27 27 28 27 27 26 26 25 25 24 24 24 23 22 23 23 23
1 1 2 3 3 3 2 3 4 4 4 4 4 4 4 4 3 4 5 7 13 8 6 9 6 8 10 8 10 11 7 7 12 12 11 11 13 10 10 12 18 21 23 23 23 24 23 24 23 23 24 25 27 28 28 28 28 28 28 27 27 27 26 26 26 25 25 24 24 24 23 22 23 23
2 2 2 3 4 3 2 3 3 4 4 4 4 4 4 5 3 3 4 7 12 12 5 6 7 6 9 9 6 9 9 9 9 9 10 10 9 9 9 11 15 21 22 23 22 22 22 25 26 27 27 27 27 27 27 27 27 27 27 27 28 28 27 26 26 26 25 25 24 24 24 23 23 24
3 2 3 4 4 3 2 3 3 4 4 4 4 3 3 4 5 4 4 6 7 14 12 8 6 6 6 9 5 8 12 10 9 12 10 7 7 9 10 11 11 20 22 21 22 24 26 25 25 25 25 26 26 26 26 26 26 26 26 26 27 27 27 27 26 26 26 26 25 25 25 24 24 23
2 2 3 4 4 3 3 4 4 3 4 4 3 4 3 4 4 4 3 4 8 11 13 11 9 7 6 8 9 7 8 10 9 11 11 10 9 9 10 10 9 15 21 25 25 24 23 23 24 25 25 25 25 26 26 27 28 27 27 27 26 27 27 27 27 27 26 26 26 25 25 25 24 24
2 2 3 3 3 3 3 4 3 4 3 3 4 4 4 3 5 4 4 4 6 9 12 14 9 8 8 9 7 7 8 9 9 8 11 11 11 10 9 9 9 12 22 23 23 23 23 24 24 24 24 23 23 24 24 25 25 25 26 26 27 27 26 26 26 26 27 27 27 27 26 26 25 24
2 2 3 3 3 3 4 4 4 4 4 4 3 4 5 5 5 4 4 5 5 8 11 13 10 7 8 8 9 7 9 10 8 8 10 11 11 11 10 8 8 15 20 19 20 21 23 23 23 23 23 23 23 25 27 27 27 27 28 27 26 26 26 26 26 27 25 25 25 25 26 26 25 25
3 3 3 3 3 4 4 5 4 4 4 4 4 4 5 5 4 4 4 5 6 7 10 10 13 10 8 10 9 6 7 9 11 11 9 9 8 9 12 10 8 7 7 7 8 12 15 18 22 22 21 23 26 26 26 26 27 27 27 28 28 27 27 27 26 25 25 26 26 25 25 25 25 25
3 3 3 4 4 4 4 5 5 5 5 3 3 3 4 5 5 6 5 5 6 7 9 10 9 11 9 6 11 9 6 8 8 10 11 12 9 8 10 13 9 7 9 10 15 15 15 18 16 19 22 24 24 25 25 25 26 26 27 28 28 27 27 28 28 27 26 24 25 24 24 23 24 24
3 3 4 4 4 4 5 5 5 5 5 4 5 4 4 5 6 6 5 6 6 7 8 8 10 8 10 9 7 8 8 8 6 5 8 13 13 12 11 10 11 10 9 11 8 8 10 11 13 17 19 21 24 25 23 23 24 25 25 26 26 27 26 26 27 28 29 28 27 26 25 24 23 23
3 4 4 4 4 5 7 10 9 8 7 5 5 5 4 4 5 5 5 5 7 8 8 10 9 10 10 8 9 10 8 8 10 10 9 11 11 11 13 12 8 8 11 11 10 7 6 10 9 9 10 11 18 17 20 18 21 23 24 25 26 26 27 26 27 26 26 28 28 29 29 28 26 25
3 4 4 5 9 12 13 13 14 14 14 14 10 7 4 4 5 6 7 7 6 8 10 11 11 11 12 10 10 10 10 9 9 10 10 11 12 12 13 12 7 8 9 10 12 9 6 9 11 10 12 10 10 10 11 10 15 21 26 26 27 27 27 27 27 27 28 28 28 28 28 29 29 28
4 4 5 5 6 7 8 7 11 14 14 13 14 15 15 13 9 7 7 7 7 8 9 10 11 12 16 15 12 12 12 11 9 9 10 10 11 11 12 15 12 4 6 11 12 13 6 9 13 12 11 10 9 10 11 20 25 26 26 27 26 26 26 27 27 27 28 28 28 28 28 28 29 28
4 5 4 4 3 4 4 4 4 6 11 14 15 15 15 15 16 15 10 9 8 7 9 10 9 11 13 16 13 13 13 12 12 11 10 11 12 13 14 12 13 9 9 13 14 17 10 9 12 12 10 10 10 10 16 25 27 28 27 27 26 26 26 26 26 26 26 27 28 29 28 28 28 28
4 4 5 5 4 3 7 5 4 4 5 9 14 14 14 12 13 13 16 16 12 10 11 11 14 14 14 16 14 11 12 16 16 14 15 12 12 13 15 15 13 14 10 13 12 16 12 9 13 12 9 9 9 10 14 21 25 27 28 27 26 26 25 26 26 26 26 27 27 27 29 28 27 27
4 4 5 5 4 3 3 4 5 4 5 5 4 4 4 5 10 16 19 20 21 19 14 14 16 17 13 15 15 16 16 16 15 14 15 13 13 14 16 16 15 14 10 11 13 17 13 9 12 12 9 7 9 8 12 23 26 27 27 26 27 26 25 25 25 25 25 26 26 26 27 29 28 27
5 4 4 4 5 4 4 4 6 6 6 5 5 6 7 9 10 10 11 12 12 13 13 15 16 17 17 16 17 17 13 13 14 13 16 16 15 16 18 17 14 12 8 11 10 15 12 8 12 12 11 9 8 7 13 22 24 25 25 26 26 27 26 25 24 25 26 27 26 26 25 26 27 29
4 3 4 4 5 4 4 7 13 11 8 6 7 9 10 10 10 10 11 18 19 16 14 12 12 12 14 18 16 15 13 12 12 12 12 12 11 13 13 14 10 11 6 7 8 12 13 9 15 14 9 9 10 9 9 14 23 24 25 25 24 24 25 26 28 29 28 27 27 26 26 27 27 28
5 5 4 5 5 5 4 9 13 14 13 8 9 11 11 10 10 11 11 17 23 24 26 27 27 28 28 28 29 29 32 24 21 17 16 15 12 13 14 12 8 9 5 5 8 10 14 10 12 13 9 10 10 9 9 8 14 21 22 22 22 24 27 29 28 27 28 28 28 28 28 27 26 30
4 5 12 10 7 7 6 12 14 14 12 10 9 9 11 13 13 11 10 9 9 17 21 24 26 27 27 29 30 30 29 30 22 14 16 13 11 12 10 11 9 9 5 7 7 11 11 11 8 11 9 9 5 8 8 8 8 14 15 21 25 25 25 26 27 27 27 27 27 28 28 26 26 18
4 5 7 12 11 9 10 15 14 16 12 7 8 9 11 13 12 8 7 9 12 12 11 12 12 13 17 16 14 16 26 26 22 14 14 12 11 13 13 12 13 13 6 4 7 11 11 11 9 8 11 10 5 5 8 7 6 6 7 9 11 21 24 26 26 27 27 26 26 26 27 26 24 15
4 5 5 8 12 14 14 14 14 13 15 10 9 10 9 7 9 8 11 12 12 12 11 12 12 14 13 13 12 11 12 13 12 14 12 10 10 11 12 11 10 13 11 8 11 12 10 9 11 5 8 12 10 2 5 7 6 7 8 10 10 15 20 21 19 24 25 25 26 26 27 26 24 13
5 5 6 6 11 13 13 13 14 15 16 16 9 5 6 9 14 17 11 11 13 10 11 11 11 10 9 9 9 9 10 10 9 10 13 12 11 12 12 11 11 10 8 7 16 11 11 10 12 11 10 9 11 12 4 8 8 9 8 10 11 10 9 10 9 12 17 23 25 26 26 25 25 19
6 7 7 6 8 12 13 14 15 16 16 17 8 8 16 20 19 13 8 7 7 7 7 8 8 8 9 9 9 9 9 9 10 10 11 12 12 12 11 11 13 12 12 10 21 13 12 11 8 11 9 9 11 8 12 7 8 9 8 8 9 10 10 11 10 11 10 10 11 14 18 25 25 26
8 7 6 6 13 14 14 14 16 15 15 11 7 16 17 16 17 12 4 6 6 6 6 7 8 9 8 9 9 9 10 10 11 12 12 13 14 13 13 14 14 15 13 12 10 12 12 13 9 12 12 11 13 10 12 13 10 7 10 10 10 10 10 9 10 11 10 11 11 21 23 23 25 26
7 7 6 7 13 14 15 15 13 13 13 10 15 15 15 14 11 4 6 4 5 6 7 7 8 8 8 8 9 8 8 8 10 13 13 13 13 13 12 13 14 13 13 12 11 11 12 13 11 10 12 13 13 12 12 12 11 13 12 12 11 11 11 10 10 10 11 10 10 10 10 11 11 12
7 10 15 16 14 15 14 11 12 10 11 14 14 13 13 10 3 5 4 5 4 6 7 7 8 8 8 8 9 11 12 11 10 9 9 10 11 10 11 12 12 12 11 10 11 12 12 12 13 12 12 12 12 13 11 13 10 12 11 13 12 9 9 10 10 11 11 10 10 10 10 11 11 11
17 16 16 18 16 9 6 5 1 2 3 10 12 12 9 3 4 3 4 4 4 5 7 8 8 8 8 8 9 10 10 9 9 9 10 10 10 9 10 10 9 8 9 10 10 11 12 11 11 13 13 12 13 13 12 13 13 12 12 11 12 13 10 9 9 10 10 10 10 10 10 10 12 12
9 10 12 7 9 10 11 9 9 7 7 6 6 4 4 4 3 4 3 5 5 5 6 7 7 8 8 8 8 9 9 9 9 7 9 9 9 10 10 10 12 11 10 9 10 11 11 11 11 12 14 13 13 12 13 12 14 12 12 11 11 12 10 11 12 12 11 11 10 11 11 11 11 12
7 7 7 6 1 1 1 3 2 3 3 5 5 5 3 5 5 6 8 8 4 5 5 7 7 8 8 8 9 9 9 9 8 7 8 9 10 9 10 10 10 10 11 10 9 8 11 10 11 11 12 13 14 14 13 13 13 12 12 11 12 11 11 12 12 12 12 10 10 11 11 10 11 11
4 4 4 2 3 1 2 3 4 5 4 5 5 3 4 5 6 4 2 4 6 6 5 6 6 8 8 9 8 8 9 9 8 7 8 8 9 9 8 9 10 11 12 14 12 10 8 10 11 13 13 13 14 15 15 15 13 11 11 11 11 12 11 12 11 12 12 11 11 12 12 10 10 10
5 6 5 5 5 5 3 4 6 6 4 6 5 5 4 5 4 5 5 5 5 5 5 5 6 8 8 9 8 8 8 9 9 9 9 9 9 9 9 10 10 10 9 11 11 10 10 9 10 10 11 12 13 14 14 13 14 12 12 12 11 12 12 12 12 12 11 11 12 12 10 9 10 10
7 6 6 5 4 4 6 5 6 6 5 4 5 5 4 4 5 6 4 5 5 6 5 6 7 7 8 8 8 8 9 10 10 9 8 7 8 8 9 9 10 10 11 10 11 11 11 12 12 12 12 10 10 8 11 14 13 13 11 11 10 12 12 11 11 11 11 11 9 10 10 10 11 10
7 6 6 5 5 5 5 7 6 6 6 6 5 4 4 6 4 5 5 5 4 5 5 7 8 7 7 7 7 8 8 10 9 9 9 9 9 9 9 9 10 10 10 10 11 10 10 11 10 12 14 14 11 12 9 10 14 11 11 12 10 10 10 10 11 11 11 11 11 10 11 13 13 12
7 6 6 6 4 6 7 6 7 6 5 6 5 4 5 6 5 4 5 5 5 5 6 6 7 7 7 7 8 9 8 8 9 10 10 9 9 9 10 9 10 9 10 10 9 10 9 10 9 10 11 10 12 14 14 9 14 16 11 12 13 11 11 11 12 12 12 11 12 11 12 12 13 13
7 6 6 6 5 6 6 6 6 6 5 5 5 4 5 5 5 5 4 4 6 5 6 6 7 7 7 8 7 8 8 8 8 9 10 9 9 9 9 10 11 10 10 10 9 10 9 9 9 10 10 13 14 15 15 13 11 13 15 13 12 14 12 13 14 14 13 11 11 12 11 11 13 13
6 6 6 6 6 6 6 7 6 7 5 6 4 5 5 6 5 5 5 5 5 5 6 6 6 7 7 7 7 7 8 8 9 9 10 10 10 10 10 10 10 10 9 12 11 9 8 9 9 9 9 11 13 13 14 16 16 16 19 26 15 13 14 13 13 13 12 13 12 11 10 11 14 19
6 6 6 6 6 6 6 6 6 7 6 5 5 6 5 6 6 5 5 6 6 6 6 7 7 8 7 7 7 6 7 8 9 9 10 11 10 9 8 9 10 10 11 11 11 10 9 9 9 9 10 11 13 14 14 15 15 16 15 18 20 14 11 10 12 12 13 13 12 11 10 8 8 7
5 6 6 6 6 6 6 6 7 6 6 5 4 5 6 5 6 6 5 6 7 6 6 6 7 6 8 7 6 6 8 8 8 9 10 10 10 9 13 15 11 10 10 11 11 10 10 8 13 26 23 15 15 15 12 11 11 10 11 13 14 19 21 18 12 12 14 15 12 10 8 7 7 7
6 6 6 6 6 6 6 7 6 5 6 5 4 5 5 6 6 9 8 9 7 6 7 7 7 7 7 7 7 7 7 8 8 9 10 10 9 10 14 11 10 9 9 10 10 12 11 11 13 13 13 13 12 11 12 13 13 12 11 12 11 13 16 18 19 19 12 6 4 3 3 4 4 5
5 5 6 6 6 6 6 7 6 6 6 4 6 5 6 6 6 6 6 7 6 6 6 6 6 7 7 7 7 7 7 8 8 10 11 9 8 9 10 10 10 11 10 10 11 11 10 10 10 11 10 10 10 10 12 13 12 12 11 10 11 11 8 12 15 18 18 17 14 7 3 3 4 3
5 6 6 6 6 6 6 6 6 5 5 6 5 5 6 6 7 7 6 6 6 6 5 6 6 7 7 8 7 7 6 7 8 10 9 8 8 8 10 11 12 11 10 11 11 11 11 10 9 10 10 10 9 10 12 13 12 10 9 11 11 10 10 10 10 11 10 10 15 18 16 10 7 9
6 6 6 6 6 6 6 6 6 6 6 5 5 6 6 6 6 6 6 6 6 6 6 6 6 7 7 8 8 8 7 9 9 9 10 9 8 9 10 11 12 12 11 10 11 12 10 11 9 8 8 9 9 10 12 13 13 12 12 12 11 9 9 9 11 11 10 8 10 17 17 16 14 12
Wind_Direction
7 358 324 282 293 295 359 336 316 312 308 311 310 302 292 315 309 318 312 311 324 309 333 305 317 354 332 328 330 326 320 321 324 316 313 314 320 324 326 322 318 315 313 314 316 315 310 308 307 306 306 305 304 304 305 306 306 306 306 305 305 302 300 298 296 293 292 290 290 290 288 287 288 288
38 341 353 325 323 307 12 324 310 298 282 292 295 304 323 330 293 276 302 297 300 288 294 342 312 339 325 324 325 328 322 321 325 324 328 327 323 323 322 319 316 315 319 319 316 312 310 309 308 307 307 306 306 305 304 304 304 305 305 305 305 304 301 299 296 294 292 290 289 288 287 285 284 283
77 321 318 320 328 324 352 329 319 323 342 327 332 328 316 309 285 281 282 297 266 38 309 306 310 309 317 318 314 312 314 317 329 330 326 324 321 322 316 316 319 321 320 316 313 312 311 310 309 308 307 307 306 304 304 303 303 303 304 304 304 303 302 300 298 296 293 291 289 287 286 285 282 282
315 340 342 313 316 306 348 326 329 337 325 325 325 314 308 299 292 282 280 269 282 292 287 298 304 310 314 318 308 301 303 317 331 325 322 320 320 320 317 315 320 319 316 314 313 311 311 313 315 315 315 312 310 306 304 303 303 302 302 302 302 302 302 300 298 296 293 290 288 285 284 284 283 281
15 4 335 312 305 318 2 321 325 321 308 315 320 314 314 306 305 319 293 289 290 293 274 286 302 308 314 305 302 308 316 321 317 312 312 316 317 317 318 317 314 315 313 313 313 315 320 321 319 316 313 310 307 306 305 304 304 302 302 302 302 302 300 300 298 296 295 294 292 290 288 287 285 283
346 353 338 318 320 320 358 329 325 311 316 313 308 307 313 314 313 303 305 287 285 292 305 298 296 298 294 296 319 317 315 318 320 313 313 316 315 317 316 311 308 310 313 315 320 322 319 317 315 314 313 310 310 310 309 308 306 304 302 302 301 301 301 299 298 297 294 291 290 287 285 283 283 282
324 359 341 317 316 334 355 324 309 313 310 307 320 321 327 309 297 292 288 293 289 292 292 298 303 305 307 299 311 320 314 314 317 313 315 320 317 310 307 303 300 309 318 319 319 319 318 317 316 314 314 313 313 312 310 306 303 303 302 300 298 297 297 297 297 297 295 293 291 290 288 287 285 285
335 309 320 303 316 324 324 306 310 301 302 323 322 312 297 293 291 290 280 272 279 291 295 296 301 307 313 307 313 319 311 310 315 313 309 310 306 304 303 303 308 314 315 315 316 317 317 316 315 315 314 313 313 316 317 313 305 300 302 307 307 299 293 292 293 293 293 292 291 290 289 287 286 285
289 289 275 281 303 312 301 296 295 293 301 295 299 291 287 284 279 278 277 276 274 284 284 291 295 308 305 303 306 320 317 314 307 306 304 305 306 307 304 305 303 306 308 309 311 313 313 314 314 314 316 319 322 321 318 315 313 313 316 316 315 314 309 303 297 294 293 293 291 288 287 285 284 283
271 264 268 267 269 277 275 272 272 277 282 287 286 291 291 290 293 292 292 287 285 280 282 291 300 307 310 311 299 314 314 310 312 309 304 299 303 308 308 303 302 299 297 304 301 305 306 305 311 315 317 319 319 317 315 314 316 317 317 315 312 309 305 302 299 296 294 293 293 291 288 286 284 283
263 264 260 259 252 254 255 263 263 269 276 277 282 293 305 307 306 300 294 297 296 293 293 292 288 296 299 298 304 312 309 300 300 308 313 309 306 303 299 303 301 296 295 290 295 297 300 306 309 310 314 314 313 311 310 310 310 310 310 311 310 308 305 302 297 297 297 297 298 298 295 290 287 285
275 274 274 264 258 248 252 253 261 262 274 276 283 279 291 294 294 294 298 299 295 294 290 287 299 298 301 304 286 294 309 309 301 294 308 306 310 309 301 293 302 305 299 300 294 287 293 290 295 304 305 305 306 306 306 304 305 305 305 305 306 304 304 303 300 298 298 298 298 297 295 294 291 290
279 277 273 271 267 260 257 260 264 261 264 274 279 276 260 271 278 286 289 287 293 293 292 295 299 299 298 298 309 310 312 312 309 310 303 293 292 295 298 296 291 293 298 295 291 293 294 302 301 299 298 297 300 297 297 299 298 297 301 304 304 304 303 301 298 295 293 293 295 296 295 293 291 288
279 276 270 272 273 276 277 277 279 280 283 283 281 276 247 253 266 270 279 283 282 289 291 293 301 299 295 301 305 299 296 296 297 296 297 293 297 297 291 287 282 287 287 292 298 298 311 302 298 298 294 293 294 294 294 289 293 299 302 303 303 302 302 301 300 299 297 293 290 289 290 290 290 289
278 277 272 267 271 277 286 293 289 290 292 295 294 292 288 284 280 283 284 281 280 280 278 281 284 284 290 294 299 297 300 296 287 287 289 287 294 294 301 302 301 192 283 299 299 296 306 300 295 293 289 292 285 283 285 292 302 303 303 303 302 300 299 299 298 298 298 298 299 295 290 287 287 286
275 276 279 279 279 277 276 278 287 294 294 294 293 293 291 289 285 282 279 285 286 277 278 282 271 283 286 292 293 295 296 293 288 281 276 280 283 286 286 282 287 299 307 296 299 295 303 293 285 288 291 288 281 279 289 300 304 303 303 303 303 302 301 299 298 297 298 297 295 294 293 289 286 285
274 282 286 285 277 283 294 302 303 289 284 284 289 294 301 309 308 301 294 291 291 298 289 283 282 280 287 285 283 276 277 286 285 288 288 283 279 279 279 280 283 290 301 295 292 289 298 302 290 286 286 281 288 290 293 298 301 303 304 303 303 302 301 300 300 300 299 298 296 292 290 291 289 286
269 276 280 282 290 297 310 302 296 294 287 289 297 303 301 294 292 289 286 284 283 281 278 278 277 278 266 270 274 277 279 281 282 283 281 280 279 277 272 275 278 286 294 288 293 286 294 292 288 287 291 292 292 290 292 302 304 303 302 302 302 302 302 302 301 299 296 296 301 297 291 288 289 289
259 264 269 280 284 283 279 271 281 279 275 277 279 277 274 270 267 259 256 254 252 254 257 263 267 273 275 270 272 272 270 271 273 275 280 281 280 278 279 278 276 278 273 274 277 280 293 293 288 290 299 298 287 290 295 297 300 301 302 302 303 304 303 302 305 308 310 311 308 306 304 298 292 287
256 255 259 269 267 266 268 278 285 286 284 277 279 278 271 267 265 262 255 260 262 262 260 260 255 252 256 257 259 264 268 266 271 279 281 284 286 288 287 285 293 281 281 249 269 282 287 300 293 294 295 291 290 287 280 285 296 300 300 300 300 301 303 307 310 310 309 309 308 307 306 303 299 295
255 250 251 252 257 263 261 274 281 284 285 281 271 269 274 272 270 270 266 268 273 277 282 287 292 295 298 300 301 303 304 304 305 305 298 292 295 285 285 284 283 279 300 272 261 274 283 288 286 293 291 285 284 283 279 276 286 296 298 300 303 305 304 303 302 302 303 304 306 308 307 304 301 297
249 248 263 263 256 255 251 269 275 276 278 268 268 275 282 280 276 278 280 283 282 288 296 299 301 302 302 303 303 303 302 301 300 294 290 300 302 291 287 294 302 303 299 282 276 274 274 289 287 289 287 278 257 271 273 280 280 292 299 301 302 303 302 303 303 302 301 303 304 304 303 304 309 306
238 248 259 267 264 259 259 268 273 278 283 281 278 276 274 277 283 291 310 310 308 306 308 307 313 308 305 304 301 298 299 300 301 300 300 308 302 295 295 294 300 294 292 316 336 302 294 291 287 295 302 290 267 259 281 285 295 303 302 302 301 299 300 302 302 303 303 303 301 300 302 305 309 308
243 240 241 255 266 269 271 274 279 283 285 285 278 270 275 294 301 314 306 308 310 315 320 314 311 304 303 300 299 300 302 303 303 301 296 293 292 290 292 290 282 280 291 300 301 287 292 294 296 312 300 308 307 311 312 301 300 299 300 296 287 293 297 297 297 298 298 299 301 303 303 304 305 305
246 245 244 239 257 266 272 277 281 284 286 284 288 319 323 306 303 309 311 322 331 323 315 309 306 303 303 304 304 305 305 304 303 303 303 302 302 301 302 303 300 294 305 324 318 307 300 309 303 308 295 288 290 299 282 283 284 283 284 283 286 287 286 286 289 290 293 296 298 299 301 301 301 301
237 243 243 233 254 270 275 274 280 282 289 304 325 316 305 303 306 310 327 332 326 316 312 308 304 304 306 308 307 304 305 304 304 306 305 303 302 299 297 300 303 301 302 317 312 306 303 294 299 301 296 292 283 275 292 275 273 280 275 275 278 283 283 285 285 285 289 291 292 296 296 298 300 300
240 237 240 256 268 269 272 275 279 296 311 323 316 306 307 310 313 323 349 327 315 306 305 306 303 302 304 308 311 312 311 312 315 317 316 313 309 305 302 301 298 297 301 303 294 288 286 286 291 287 288 284 284 286 277 291 292 288 286 286 285 282 280 280 282 285 286 288 288 294 298 297 295 294
245 247 247 245 258 266 268 279 300 310 315 309 308 308 309 316 326 342 325 316 308 306 305 302 300 301 303 303 303 305 306 308 315 313 310 306 305 303 302 300 296 289 290 287 282 274 271 272 271 263 270 278 278 283 287 278 276 288 290 290 282 282 282 280 279 279 278 281 285 290 291 289 288 290
228 244 251 257 259 264 277 298 311 317 309 304 301 306 313 326 2 331 308 303 310 306 297 295 293 294 296 295 294 304 307 301 299 295 292 289 285 283 282 285 284 284 287 285 282 279 275 273 273 272 270 268 271 273 271 280 281 286 284 291 290 282 282 281 281 279 280 279 278 282 279 283 285 285
250 252 254 255 264 277 301 315 335 253 280 297 303 308 316 318 301 293 306 297 293 284 291 290 294 295 297 298 298 298 296 297 298 299 297 300 299 301 302 299 286 275 276 283 285 288 286 283 280 278 273 268 265 269 269 277 278 280 281 278 281 287 277 279 277 275 278 280 279 278 278 276 279 282
256 262 261 256 251 262 283 291 300 302 305 306 299 277 264 265 266 279 265 263 262 279 286 292 291 293 294 296 299 299 299 296 295 294 295 297 301 308 308 303 302 303 295 284 284 286 287 289 293 295 291 286 277 269 272 271 275 278 279 277 280 283 291 288 283 283 279 278 277 275 273 273 272 269
244 240 239 249 55 36 4 318 309 281 266 260 267 267 267 272 274 272 283 294 288 281 275 280 287 289 296 295 293 293 293 292 294 302 306 308 306 308 309 306 301 302 302 301 296 291 298 295 299 297 292 292 291 289 283 277 276 279 278 279 278 276 278 278 283 281 279 279 280 274 272 271 270 269
206 169 212 194 248 235 244 251 262 271 275 272 264 275 285 276 271 277 284 280 274 270 279 279 283 289 291 291 289 290 292 295 301 305 304 303 304 304 301 297 301 309 313 312 309 302 297 296 291 293 292 288 284 284 284 282 275 274 276 278 277 277 277 276 272 276 283 282 274 275 276 268 263 266
171 200 183 210 213 231 232 245 249 254 253 264 277 272 267 275 284 279 270 262 273 279 274 278 290 288 288 288 291 292 297 301 303 303 307 305 304 304 304 304 304 302 300 299 303 304 305 304 304 293 286 285 282 278 279 279 279 275 274 274 272 272 271 272 274 271 270 269 276 281 275 264 259 256
187 188 200 207 213 228 227 237 242 242 245 251 259 267 265 260 264 276 276 273 276 281 288 289 280 279 279 283 292 300 304 305 305 306 303 299 302 298 301 301 303 304 304 301 302 307 309 309 310 306 298 296 297 275 257 265 264 272 268 267 264 268 270 268 269 273 273 274 267 263 269 272 270 259
201 185 206 208 216 221 231 241 237 233 235 242 244 262 283 275 256 259 270 271 274 281 286 284 282 278 282 288 295 300 302 305 305 306 307 308 307 305 303 299 299 300 299 298 299 301 304 304 309 311 315 313 303 300 299 295 291 283 279 274 274 273 274 275 272 271 270 270 268 266 270 274 276 274
208 193 203 213 219 214 228 234 233 236 231 237 245 241 249 267 268 255 261 282 280 273 271 280 285 290 291 293 296 297 301 306 306 309 306 305 303 305 306 301 298 295 296 294 295 297 303 303 303 302 302 302 305 305 301 304 296 301 311 311 306 303 300 295 288 279 268 263 265 263 264 268 271 275
198 201 206 218 219 221 224 227 230 233 233 231 238 252 254 257 267 268 269 275 274 274 279 279 278 284 286 288 294 297 301 302 303 303 303 306 309 309 307 306 305 303 299 296 301 302 301 298 299 301 302 303 305 305 306 310 304 297 290 285 288 291 290 285 283 280 279 270 260 264 263 262 264 268
194 193 209 213 226 212 221 222 218 229 228 234 238 249 257 262 264 274 276 271 272 276 278 278 276 277 284 288 288 291 299 305 308 307 308 307 306 304 306 307 304 305 303 304 305 302 301 299 299 298 298 299 297 295 297 298 297 296 294 289 283 281 279 276 275 278 276 278 274 265 254 256 264 268
205 196 205 208 224 216 219 217 221 224 222 228 231 241 246 259 266 268 274 274 278 277 270 273 285 292 288 284 284 286 290 292 298 303 304 302 300 301 304 308 308 307 306 301 305 304 302 299 303 304 298 291 285 282 282 282 282 282 281 283 279 272 272 282 293 295 290 282 278 272 269 268 269 269
197 209 213 203 218 214 217 218 218 218 228 228 235 245 248 251 264 265 261 267 260 273 286 289 286 282 282 286 288 296 297 299 298 301 301 297 297 307 315 316 304 302 303 301 301 300 300 300 302 306 303 293 286 284 278 276 288 299 300 299 303 305 306 305 302 301 291 284 277 267 269 272 271 282
195 210 213 203 207 219 212 220 219 217 229 229 233 241 251 257 251 267 273 284 290 288 283 284 286 288 289 288 289 292 292 297 303 302 300 295 303 311 313 310 302 302 301 300 302 299 296 297 297 300 295 296 295 302 308 310 305 304 303 305 306 307 304 307 320 325 329 343 342 329 318 282 258 267
199 201 212 214 210 209 212 214 217 212 225 227 235 240 247 256 263 268 273 274 271 271 273 280 286 288 288 288 285 286 291 297 299 297 294 296 306 311 309 307 302 301 297 293 293 293 295 299 300 300 300 300 304 308 303 306 305 298 297 308 313 309 308 320 326 325 323 334 357 1 328 304 317 285
214 216 215 209 212 214 215 215 218 218 217 221 233 239 242 249 260 260 258 261 266 267 272 279 284 288 289 290 288 286 285 287 291 293 296 298 302 305 308 305 304 300 299 299 301 301 301 300 301 303 301 303 309 308 307 306 301 308 313 308 303 314 323 329 326 326 330 327 342 359 358 351 343 344
211 212 211 210 213 216 214 214 214 218 218 227 234 239 244 247 253 261 260 257 261 268 273 276 281 284 286 286 289 287 283 289 296 298 295 293 298 304 304 304 306 305 302 305 304 302 304 304 297 292 295 304 304 301 302 308 313 314 311 309 312 325 329 334 332 331 330 323 334 347 353 5 16 21